Tracking 25953 objects as of 16-Aug-2022
HD Live streaming from Space Station
objects crossing your sky now

TITAN 34D TRANSTAGE DEB

Track TITAN 34D TRANSTAGE DEB now!


NORAD ID: 22668
Int'l Code: 1988-077D
Perigee: 393.0 km
Apogee: 37,886.7 km
Inclination: 27.1 °
Period: 675.8 minutes
Semi major axis: 25510 km
RCS: Unknown
Launch date: September 2, 1988
Source: United States (US)
Launch site: AIR FORCE EASTERN TEST RANGE (AFETR)

Note: This is SATELLITE DEBRIS
aabbcc
Your satellite tracking list
Your tracking list is empty




NASA's NSSDC Master Catalog

Two Line Element Set (TLE):
1 22668U 88077D   22227.21925987  .00000161  00000-0  70718-3 0  9996
2 22668  27.1408 288.4051 7348580 340.3878   2.2569  2.13066962 25011
Source of the keplerian elements: AFSPC